Tracking 25710 objects as of 7-Jul-2022
HD Live streaming from Space Station
objects crossing your sky now

FENGYUN 1C DEB

Track FENGYUN 1C DEB now!
10-day predictions


NORAD ID: 30355
Int'l Code: 1999-025ABS
Perigee: 813.4 km
Apogee: 893.9 km
Inclination: 98.7 °
Period: 101.9 minutes
Semi major axis: 7224 km
RCS: 0.025 m2 (small)
Launch date: May 10, 1999
Source: People's Republic of China (PRC)
Launch site: Taiyaun Space Center, China (TSC)

Note: This is SATELLITE DEBRIS
aabbcc
Your satellite tracking list
Your tracking list is empty




NASA's NSSDC Master Catalog

Two Line Element Set (TLE):
1 30355U 99025ABS 22187.55700310  .00000488  00000-0  27643-3 0  9997
2 30355  98.6537 217.4340 0055668 312.1051 201.7958 14.13766916795872
Source of the keplerian elements: AFSPC